This demonstration page uses our WeatherBlox Daily Observations layout. Learn more.

Left ArrowRight Arrow

34.02893, -84.19858

Hourly Observations for October 11, 2015

Temp ( °F °C ) Dew Point ( °F °C ) Humidity (%) Winds ( mph kmh ) Pressure ( in mb ) Visibility ( mi km ) Precip ( " mm )
12:36 am 00:36 Cloudy 63 17 63 17 100 100 NE 3 6 30.00 1016 10 16 0.00 0.00
12:53 am 00:53 Cloudy 62 16.7 61 16.1 96 96 E 3 6 29.98 1015 10 16 0.00 0.00
1:24 am 01:24 Cloudy 61 16 57 14 88 88 E 7 11 29.97 1015 10 16 0.00 0.00
1:39 am 01:39 Partly Cloudy 60 15.6 58 14.4 93 93 VRB 5 7 29.97 1015 10 16 0.00 0.00
1:53 am 01:53 Mostly Clear 59 15 58 14.4 96 96 VRB 3 6 29.98 1015 10 16 0.00 0.00
2:53 am 02:53 Clear 58 14.4 56 13.3 93 93 Calm 29.98 1015 10 16 0.00 0.00
3:53 am 03:53 Clear 57 13.9 56 13.3 96 96 Calm 29.98 1015 10 16 0.00 0.00
4:53 am 04:53 Mostly Clear 56 13.3 55 12.8 97 97 N 3 6 29.99 1016 10 16 0.00 0.00
5:53 am 05:53 Cloudy 58 14.4 57 13.9 97 97 N 3 6 30.00 1016 10 16 0.00 0.00
6:53 am 06:53 Cloudy 58 14.4 56 13.3 93 93 NNE 3 6 30.00 1016 10 16 0.00 0.00
7:53 am 07:53 Cloudy 59 15 55 12.8 87 87 NE 6 9 30.01 1016 10 16 0.00 0.00
8:53 am 08:53 Partly Cloudy 59 15 56 13.3 90 90 VRB 3 6 30.02 1017 10 16 0.00 0.00
9:53 am 09:53 Sunny 62 16.7 56 13.3 80 80 E 6 9 30.03 1017 10 16 0.00 0.00
10:05 am 10:05 Mostly Cloudy 63 17.2 56 13.3 78 78 NE 7 11 30.03 1017 10 16 0.00 0.00
10:53 am 10:53 Mostly Cloudy 64 17.8 57 13.9 78 78 ENE 3 6 30.03 1017 10 16 0.00 0.00
11:53 am 11:53 Cloudy 67 19.4 58 14.4 73 73 NNE 3 6 30.01 1016 10 16 0.00 0.00
12:53 pm 12:53 Cloudy 69 20.6 58 14.4 68 68 ESE 6 9 30.00 1016 10 16 0.00 0.00
1:53 pm 13:53 Cloudy 70 21.1 58 14.4 66 66 Calm 29.97 1015 10 16 0.00 0.00
2:09 pm 14:09 Cloudy 70 21.1 58 14.4 66 66 N 6 9 29.97 1015 10 16 0.00 0.00
2:53 pm 14:53 Cloudy 71 21.7 58 14.4 63 63 Calm 29.94 1014 10 16 0.00 0.00
3:53 pm 15:53 Mostly Cloudy 72 22.2 58 14.4 61 61 NW 5 7 29.92 1013 10 16 0.00 0.00
4:53 pm 16:53 Sunny 72 22.2 56 13.3 57 57 Calm 29.91 1013 10 16 0.00 0.00
5:53 pm 17:53 Partly Cloudy 71 21.7 58 14.4 63 63 S 6 9 29.90 1013 10 16 0.00 0.00
6:53 pm 18:53 Sunny 66 18.9 58 14.4 75 75 SSE 6 9 29.90 1013 10 16 0.00 0.00
7:53 pm 19:53 Clear 62 16.7 59 15 90 90 SSE 3 6 29.91 1013 10 16 0.00 0.00
8:53 pm 20:53 Cloudy 62 16.7 59 15 90 90 Calm 29.92 1013 10 16 0.00 0.00
9:53 pm 21:53 Mostly Clear 61 16.1 59 15 93 93 S 3 6 29.93 1014 10 16 0.00 0.00
10:53 pm 22:53 Clear 59 15 58 14.4 96 96 Calm 29.94 1014 10 16 0.00 0.00
11:53 pm 23:53 Clear 57 13.9 57 13.9 100 100 Calm 29.94 1014 8 13 0.00 0.00

Powered by AerisWeather